Location: Asheville, NC
(35.6000°N, 82.5500°W)
Time: 09:36:10
(UTC-04:00)

Vanguard 2 - Pass Details

Date: 15 December 2017
Orbit: 553 x 2939 km, 32.9° (Epoch: 17 July)

Event Time Altitude Azimuth Distance (km) Brightness Sun altitude
Rises 12:15:34 0° 208° (SSW) 6,205 13.0 31.1°
Reaches altitude 10° 12:21:27 10° 195° (SSW) 4,788 12.9 31.1°
Maximum altitude 12:29:58 21° 154° (SSE) 3,243 12.1 31.1°
Drops below altitude 10° 12:36:15 10° 109° (ESE) 3,410 11.1 31.0°
Sets 12:39:30 0° 93° (E) 4,031 11.2 31.0°
